Regional Weather Roundup
Issued by NWS

Home | Current Version | Previous Version | Text Only | Print | Product List | Glossary Off
Versions: 1 2 3 4 5 6 7 8 9 10 11 12 13 14 15 16 17 18 19 20 21 22 23 24 25 26 27 28 29 30 31 32 33 34 35 36 37 38 39 40 41 42 43 44 45 46 47 48 49 50

000
ASUS43 KMKX 050500
RWRWI

WISCONSIN REGIONAL WEATHER ROUNDUP
NATIONAL WEATHER SERVICE MILWAUKEE/SULLIVAN WI
1200 AM CDT SUN JUL 05 2015

NOTE: "FAIR" INDICATES FEW OR NO CLOUDS BELOW 12,000 FEET WITH NO
SIGNIFICANT WEATHER AND/OR OBSTRUCTIONS TO VISIBILITY.

WIZ001-002-006>008-014>016-023>028-050600-
NORTHWEST WISCONSIN

CITY           SKY/WX    TMP DP  RH WIND       PRES   REMARKS
SUPERIOR ARPT  MOCLDY    59  57  95 E6        29.94F
ASHLAND        CLEAR     56  55  97 CALM      29.94S FOG
HAYWARD        CLOUDY    64  61  90 CALM      29.96S FOG
SIREN          CLEAR     70  65  83 S5        29.94R HAZE
CUMBERLAND     CLEAR     64  63  94 S5        29.96S FOG
RICE LAKE      CLEAR     67  64  90 CALM      29.98R FOG
CHETEK         CLEAR     66  65  96 CALM      29.97R FOG
LADYSMITH      CLEAR     64  62  91 CALM      30.00R FOG
EAU CLAIRE     NOT AVBL
MENOMONIE      CLEAR     71  64  78 S3        29.97R
NEW RICHMOND   CLEAR     69  63  80 S6        29.96R HAZE
OSCEOLA        CLEAR     69  68  97 CALM      29.97R FOG
$$

WIZ003>005-009-010-017-018-050600-
NORTH CENTRAL WISCONSIN

CITY           SKY/WX    TMP DP  RH WIND       PRES   REMARKS
MANITOWISH WTR CLEAR     60  60 100 CALM      29.99R
ARBOR VITAE    CLEAR     62  59  91 CALM      30.00R
WOODRUFF       CLEAR     62  59  91 CALM      30.00R
RHINELANDER    CLEAR     64  60  87 S3        30.02R
EAGLE RIVER    CLEAR     64  61  88 S5        30.01R
LAND O LAKES   PTCLDY    62  59  91 CALM      30.01R
PHILLIPS       CLEAR     65  61  88 CALM      29.99R
TOMAHAWK       CLEAR     61  59  93 CALM      30.00R
MEDFORD        CLEAR     66  63  89 SW3       30.00R
MERRILL        CLEAR     63  62  97 CALM      30.00R FOG
$$

WIZ029-030-035-036-043>047-050600-
CENTRAL WISCONSIN

CITY           SKY/WX    TMP DP  RH WIND       PRES   REMARKS
WAUSAU         CLEAR     70  64  81 S3        29.99R HAZE
MOSINEE        CLEAR     66  64  94 SW6       30.00R
MARSHFIELD     MOCLDY    65  61  87 S5        30.00R FOG
STEVENS POINT  CLEAR     67  61  81 SW6       29.99S
WAUPACA        CLEAR     68  66  92 CALM      29.99R
WAUTOMA        NOT AVBL
WISC RAPIDS    CLEAR     66  61  84 S3        30.01R
CAMP DOUGLAS   CLEAR     61  61 100 SE3       29.99R
$$

WIZ011>013-019>022-031-037>040-048>050-050600-
NORTHEAST WISCONSIN

CITY           SKY/WX    TMP DP  RH WIND       PRES   REMARKS
ANTIGO         CLEAR     65  64  96 SE7       30.01R
SHAWANO        PTCLDY    69  63  79 S3        29.99R
OCONTO         CLEAR     63  63 100 SE3       29.99R
STURGEON BAY   PTCLDY    61  55  82 SE7       30.03R
GREEN BAY      CLEAR     65  61  87 CALM      30.00R
MANITOWOC      NOT AVBL
APPLETON       CLEAR     70  61  73 S6        30.00R HAZE
CLINTONVILLE   MOCLDY    68  63  83 SE3       29.98S
OSHKOSH        CLEAR     68  62  81 S7        30.00R
$$

WIZ032>034-041-042-053>061-050600-
SOUTHWEST WISCONSIN

CITY           SKY/WX    TMP DP  RH WIND       PRES   REMARKS
LA CROSSE      CLEAR     70  66  87 S5        29.97R
SPARTA         CLEAR     63  61  91 CALM      29.99R
VIROQUA        CLEAR     67  62  83 S6        30.01R
BOSCOBEL       FOG       63  61  93 CALM      30.00R VSB 1
PRAIRIE DU CHI CLEAR     65  61  87 CALM      29.99S
PLATTEVILLE    CLEAR     66  63  88 SE7       30.01S
$$

WIZ056-057-062-063-064-067-068-050600-
SOUTH CENTRAL WISCONSIN

CITY           SKY/WX    TMP DP  RH WIND       PRES   REMARKS
REEDSBURG      CLEAR     65  61  87 CALM      29.99R
BARABOO/DELLS  CLEAR     64  58  83 S5        30.00R
LONE ROCK      NOT AVBL
MINERAL POINT  CLEAR     68  63  83 S5        30.02S
MADISON        CLEAR     66  62  87 CALM      30.01R FOG
MIDDLETON      CLEAR     65  62  89 CALM      30.02R
WATERTOWN      CLEAR     66  66 100 CALM      30.01S
MONROE         CLEAR     66  61  82 S7        30.03R
JANESVILLE     CLEAR     68  61  77 CALM      30.01S
$$

WIZ051-052-058>065-066-070>072-050600-
SOUTHEAST WISCONSIN

CITY           SKY/WX    TMP DP  RH WIND       PRES   REMARKS
MILWAUKEE      PTCLDY    68  55  63 S6        30.02S
WAUKESHA       CLEAR     66  59  77 S7        30.03S
MILWAUKEE/TIMM CLEAR     68  55  64 S6        30.03R
RACINE         CLEAR     64  54  69 S3        30.04S
BURLINGTON     CLEAR     60  58  95 CALM      30.03R
KENOSHA        CLEAR     66  55  67 S5        30.03S
FOND DU LAC    CLEAR     65  62  90 S5        30.01R
SHEBOYGAN      CLEAR     61  57  87 S3        30.01S
WEST BEND      CLEAR     63  59  88 CALM      30.02S
JUNEAU         CLEAR     66  62  86 SE5       30.02S
$$

LSZ147-162-050600-
LAKE SUPERIOR

STATION/POSITION TIME  TEMP    WIND        PRES    WAVE
                       AIR SEA DIR/SP/G            HT/PER
                 (UTC) (F)     (DEG/KT/KT) (MB)    (FT/S)
W MID LAKE BUOY  0350   47 39   80/  8/  8 1014.2R   0
DEVILS ISLAND    0400   54      20/ 10/ 11 1014.2R
SAXON HARBOR     0440   59        CALM     1013.5R
$$

LMZ867-665-643>646-050600-
LAKE MICHIGAN

STATION/POSITION TIME  TEMP    WIND        PRES    WAVE
                       AIR SEA DIR/SP/G            HT/PER
                 (UTC) (F)     (DEG/KT/KT) (MB)    (FT/S)
CHAMBERS ISLAND  0400   65     140/  4/  8 1015.6F
S GREEN BAY BUOY 0400   67 69  150/ 10/ 12 1016.6F
N MID LAKE BUOY  0350   55 51  210/  6/  6 1016.3F   0
NORTHPORT PIER   0400   62     170/  4/  6 1015.9S
SISTER BAY       0314   62     150/  9/ 12   N/A
ALGOMA LAKESHORE 0411          150/  4/  6   N/A
KEWAUNEE LAKESHO 0400   61     130/  2/  4 1015.5R
SHEBOYGAN LAKESH 0400   62     160/  7/  7 1016.5R
PORT WASHINGTON  0400   64     180/  2/  2 1016.9R
ATWATER BUOY     0400   64 61  160/  6/  8 1017.8R
MILWAUKEE LAKESH 0400   69     170/  3/  4   N/A
KENOSHA   LAKESH 0300   68     180/  7/  9 1016.3R
$$

TC  - TEMPERATURE IN CELSIUS
VSB - VISIBILITY IN STATUTE MILES
WCI - WIND CHILL INDEX
HX  - HEAT INDEX



USA.gov is the U.S. government's official web portal to all federal, state and local government web resources and services.